User: anonymous   Login
Location: *
(40.4270°N, 9.4940°E)
Time: 19:47:58
(UTC+02:00)
Language:

Okean 2 - Orbit

View from above orbital plane
View from above orbital plane
View from above satellite
View from above satellite

Ground track
Ground track

The orbit data is extracted from the following two-line orbital elements,

1 20510U 90018A   17116.82704821 +.00000649 +00000-0 +51446-4 0  9997
2 20510 082.5180 220.7607 0013156 149.8455 312.7991 14.98883476452630
Epoch (UTC): 26 April 2017 19:50:56
Eccentricity: 0.0013156
inclination: 82.5180°
perigee height: 561 km
apogee height: 579 km
right ascension of ascending node: 220.7607°
argument of perigee: 149.8455°
revolutions per day: 14.98883476
mean anomaly at epoch: 312.7991°
orbit number at epoch: 45263

The dashed part of the orbit path shows where the satellite is in the earth's shadow,  

DLR